EW5799 Weather Reports


time (UTC)temp
C
wind
direction
speed
KPH
gust
KPH
rain 1hr
cm
rain 24hr
cm
rain mn
cm
humidity
%
barometer
mb
20260510043057 24 82 16.1 22.5 0.00 0.03 0.03 96 1011.1
20260510041519 24 70 9.7 20.9 0.00 0.03 0.03 96 1011.4
20260510040030 25 79 8.0 16.1 0.03 0.03 0.03 96 1011.5
20260510034513 25 99 8.0 16.1 0.03 0.03 0.03 95 1011.2
20260510033011 25 118 12.9 16.1 0.03 0.03 0.03 96 1010.8
20260510031509 24 84 9.7 19.3 0.03 0.03 0.03 96 1011.0
20260510030008 25 95 8.0 19.3 0.00 0.00 0.00 96 1011.1
20260510024505 25 115 12.9 20.9 0.00 0.00 0.00 96 1010.6
20260510023033 25 65 9.7 19.3 0.00 0.00 0.00 96 1010.8
20260510021533 25 79 11.3 20.9 0.00 0.00 0.00 96 1010.3
20260510020026 25 98 11.3 20.9 0.00 0.00 0.00 95 1009.7
20260510014523 25 109 14.5 25.7 0.00 0.00 0.00 94 1009.2
20260510013018 26 114 11.3 19.3 0.00 0.00 0.00 90 1009.0
20260510011520 26 139 11.3 16.1 0.00 0.00 0.00 90 1008.4
20260510010022 26 124 14.5 19.3 0.00 0.00 0.00 90 1007.8
20260510004515 26 113 11.3 17.7 0.00 0.00 0.00 89 1008.0
20260510003015 27 128 14.5 20.9 0.00 0.00 0.00 87 1007.8
20260510001515 27 127 12.9 19.3 0.00 0.00 0.00 87 1007.8
20260510000017 27 102 8.0 14.5 0.00 0.00 0.00 84 1007.5
20260509234514 27 89 8.0 16.1 0.00 0.00 0.00 83 1007.4
20260509233011 27 122 8.0 12.9 0.00 0.00 0.00 84 1007.3
20260509231508 28 81 9.7 14.5 0.00 0.00 0.00 83 1007.5
20260509230040 28 98 8.0 17.7 0.00 0.00 0.00 82 1007.4
20260509224537 27 89 8.0 12.9 0.00 0.00 0.00 82 1007.1
20260509223038 28 94 4.8 11.3 0.00 0.00 0.00 83 1007.2
20260509221537 27 101 6.4 12.9 0.00 0.00 0.00 84 1007.1
20260509220032 27 77 6.4 12.9 0.00 0.00 0.00 86 1007.0
20260509214532 27 105 8.0 16.1 0.00 0.00 0.00 88 1007.0
20260509213032 27 117 9.7 14.5 0.00 0.00 0.00 87 1006.9
20260509211528 27 105 6.4 12.9 0.00 0.00 0.00 89 1007.0
20260509210029 27 107 4.8 9.7 0.00 0.00 0.00 88 1007.0
20260509204525 27 109 4.8 8.0 0.00 0.00 0.00 90 1007.1
20260509203020 26 130 9.7 12.9 0.00 0.00 0.00 90 1007.2
20260509201519 26 101 8.0 12.9 0.00 0.00 0.00 91 1007.4
20260509200016 26 108 6.4 11.3 0.00 0.00 0.00 91 1007.7
20260509194515 26 102 8.0 14.5 0.00 0.00 0.00 90 1007.8
20260509193107 26 96 6.4 16.1 0.00 0.00 0.00 91 1007.8
20260509191543 27 105 8.0 16.1 0.00 0.00 0.00 90 1007.9
20260509190039 27 101 4.8 14.5 0.00 0.00 0.00 88 1007.9
20260509184545 28 141 3.2 6.4 0.00 0.03 0.00 82 1008.0
20260509183037 27 146 1.6 4.8 0.00 0.03 0.00 84 1008.4
20260509181540 27 153 1.6 3.2 0.00 0.03 0.00 87 1008.6
20260509180030 27 240 0.0 3.2 0.00 0.03 0.00 88 1009.0
20260509174525 26 239 0.0 4.8 0.00 0.05 0.00 92 1009.2
20260509173024 25 100 0.0 3.2 0.00 0.05 0.00 94 1009.6
20260509171536 25 91 0.0 4.8 0.00 0.05 0.00 95 1009.5
20260509170054 25 129 6.4 8.0 0.00 0.05 0.00 95 1009.6
20260509164553 25 103 4.8 11.3 0.00 0.05 0.00 94 1009.8
20260509163053 26 126 0.0 3.2 0.00 0.05 0.00 92 1009.6
20260509161550 26 20 0.0 6.4 0.00 0.05 0.00 94 1009.5
20260509160043 25 10 3.2 8.0 0.00 0.05 0.00 97 1009.6
20260509154543 24 94 1.6 8.0 0.00 0.05 0.00 98 1009.3
20260509153009 24 113 3.2 9.7 0.00 0.05 0.00 98 1009.1
20260509151507 24 102 0.0 11.3 0.00 0.05 0.00 97 1009.2
20260509150002 24 136 0.0 3.2 0.00 0.05 0.00 98 1009.4
20260509144709 24 146 0.0 1.6 0.00 0.05 0.00 98 1009.4
20260509143100 24 171 1.6 4.8 0.00 0.05 0.00 99 1009.5
20260509141558 24 225 0.0 1.6 0.00 0.05 0.00 99 1009.7
20260509140100 24 224 0.0 3.2 0.00 0.05 0.00 99 1009.5
20260509134553 23 21 0.0 3.2 0.00 0.05 0.00 99 1009.0
20260509133052 23 16 3.2 8.0 0.00 0.05 0.00 99 1009.6
20260509131550 23 290 0.0 3.2 0.00 0.05 0.00 99 1009.5
20260509130052 23 231 0.0 4.8 0.00 0.05 0.00 99 1009.1
20260509124603 23 360 0.0 1.6 0.00 0.05 0.00 99 1009.3
20260509123046 23 360 0.0 0.0 0.00 0.05 0.00 99 1009.5
20260509121546 -17 0.0 0.0 0.00 0.05 0.00 1009.1
20260509120043 -17 0.0 0.0 0.00 0.05 0.00 1009.4
20260509114533 -17 0.0 0.0 0.00 0.05 0.00 1009.3
20260509113029 -17 0.0 0.0 0.00 0.05 0.00 1009.2
20260509111524 -17 0.0 0.0 0.00 0.05 0.00 1009.3
20260509110022 -17 0.0 0.0 0.00 0.05 0.00 1008.8
20260509104529 -17 0.0 0.0 0.00 0.05 0.00 1008.7
20260509103009 -17 0.0 0.0 0.00 0.05 0.00 1008.9
20260509101505 -17 0.0 0.0 0.00 0.05 0.00 1008.7
20260509100106 -17 0.0 0.0 0.00 0.05 0.00 1008.7
20260509100002 -17 0.0 0.0 0.00 0.05 0.00 1008.7
20260509094555 -17 356 0.0 4.8 0.00 0.05 0.00 99 1008.5
20260509093053 23 360 1.6 3.2 0.00 0.05 0.00 99 1008.4
20260509091552 23 360 0.0 3.2 0.00 0.05 0.00 99 1008.1
20260509090058 23 360 1.6 4.8 0.00 0.05 0.00 99 1008.2
20260509084553 23 360 0.0 1.6 0.00 0.05 0.00 99 1008.2
20260509083048 23 360 0.0 1.6 0.00 0.05 0.00 99 1008.4
20260509081550 23 360 0.0 1.6 0.00 0.05 0.00 98 1008.4
20260509080050 23 360 0.0 1.6 0.00 0.05 0.00 99 1008.7
20260509074546 23 360 0.0 1.6 0.00 0.05 0.00 98 1008.9
20260509073043 23 360 0.0 0.0 0.00 0.05 0.00 98 1009.0
20260509071552 23 360 0.0 1.6 0.00 0.05 0.00 98 1009.0
20260509070043 23 125 0.0 1.6 0.00 0.05 0.00 98 1009.0
20260509064539 23 125 0.0 0.0 0.00 0.05 0.00 98 1008.7
20260509063039 23 125 0.0 1.6 0.00 0.05 0.00 98 1009.0
20260509061545 23 125 0.0 0.0 0.00 0.05 0.00 98 1009.2
20260509060039 23 125 0.0 0.0 0.00 0.05 0.00 98 1009.1
20260509054535 23 125 0.0 1.6 0.00 0.05 0.00 98 1009.1
20260509053035 23 125 1.6 4.8 0.00 0.05 0.00 98 1009.3
20260509051534 23 136 3.2 8.0 0.00 0.05 0.00 98 1009.3
20260509050046 23 124 3.2 6.4 0.00 0.05 0.00 98 1009.6
20260509044541 23 131 4.8 6.4 0.00 0.05 0.00 98 1009.7